CW2640 Weather Reports


Display with metric or nautical units.
time (UTC)temp
F
wind
direction
speed
MPH
gust
MPH
rain 1hr
in
rain 24hr
in
rain mn
in
humidity
%
barometer
mb
20260902091023 72 80 0.0 0.0 0.00 0.00 0.00 99 1018.7
20260902084023 72 80 0.0 0.0 0.00 0.00 0.00 99 1018.4
20260902081018 73 80 0.0 0.0 0.00 0.00 0.00 99 1018.1
20260902074012 73 80 0.0 0.0 0.00 0.00 0.00 99 1018.0
20260902071010 73 80 0.0 0.0 0.00 0.00 0.00 99 1018.0
20260902064009 74 80 0.0 0.0 0.00 0.00 0.00 99 1018.1
20260902061006 74 81 0.0 0.0 0.00 0.00 0.00 99 1017.9
20260902054002 75 87 0.0 0.0 0.00 0.00 0.00 99 1018.0
20260902050958 75 92 0.0 0.0 0.00 0.00 0.00 97 1018.5
20260902043953 76 95 0.0 0.0 0.00 0.00 0.00 95 1018.4
20260902040950 76 96 0.0 0.0 0.00 0.00 0.00 94 1018.4
20260902033950 77 100 0.0 0.0 0.00 0.00 0.00 94 1018.5
20260902030948 77 100 0.0 0.0 0.00 0.00 0.00 93 1018.5
20260902023943 78 101 0.0 0.0 0.00 0.00 0.00 91 1018.4
20260902020944 79 105 0.0 0.0 0.00 0.00 0.00 90 1018.0
20260902013939 80 106 0.0 0.0 0.00 0.00 0.00 89 1017.9
20260902010939 81 107 0.0 0.0 0.00 0.00 0.00 87 1017.6
20260902003936 82 103 0.0 0.0 0.00 0.00 0.00 86 1017.7
20260902000934 84 88 0.0 0.0 0.00 0.00 0.00 80 1017.5
20260901233932 87 98 0.0 0.0 0.00 0.00 0.00 73 1017.7
20260901230930 89 94 0.0 0.0 0.00 0.00 0.00 66 1017.6
20260901223929 92 84 0.0 0.0 0.00 0.00 0.00 58 1017.8
20260901220925 94 80 0.0 0.0 0.00 0.00 0.00 54 1017.5
20260901213925 95 80 0.0 0.0 0.00 0.00 0.00 52 1017.7
20260901210920 95 80 0.0 0.0 0.00 0.00 0.00 51 1017.7
20260901203915 96 80 0.0 0.0 0.00 0.00 0.00 49 1017.9
20260901200913 96 80 0.0 0.0 0.00 0.00 0.00 53 1018.2
20260901193910 95 80 0.0 0.0 0.00 0.00 0.00 53 1018.6
20260901190910 96 80 0.0 0.0 0.00 0.00 0.00 49 1019.0
20260901183910 95 80 0.0 0.0 0.00 0.00 0.00 47 1019.4
20260901180906 95 80 0.0 0.0 0.00 0.00 0.00 50 1019.6
20260901173903 95 80 0.0 0.0 0.00 0.00 0.00 51 1019.8
20260901170902 93 80 0.0 0.0 0.00 0.00 0.00 57 1020.1
20260901163900 93 80 0.0 0.0 0.00 0.00 0.00 58 1020.4
20260901160855 93 80 0.0 0.0 0.00 0.00 0.00 59 1020.9
20260901153854 91 80 0.0 0.0 0.00 0.00 0.00 66 1020.8
20260901150854 90 80 0.0 0.0 0.00 0.00 0.00 78 1021.0
20260901143853 88 80 0.0 0.0 0.00 0.00 0.00 77 1020.8
20260901140851 86 80 0.0 0.0 0.00 0.00 0.00 82 1020.7
20260901133848 79 80 0.0 0.0 0.00 0.00 0.00 92 1020.7
20260901130847 75 80 0.0 0.0 0.00 0.00 0.00 99 1020.6
20260901123846 72 80 0.0 0.0 0.00 0.00 0.00 99 1020.6
20260901120842 71 80 0.0 0.0 0.00 0.00 0.00 99 1020.5
20260901113841 71 80 0.0 0.0 0.00 0.00 0.00 99 1020.1
20260901110839 71 80 0.0 0.0 0.00 0.00 0.00 99 1019.7
20260901103836 71 80 0.0 0.0 0.00 0.00 0.00 99 1019.3
20260901100832 71 80 0.0 0.0 0.00 0.00 0.00 99 1019.2
20260901093831 72 80 0.0 0.0 0.00 0.00 0.00 99 1019.4